x

St. Joseph, Mi (sjom4) Weather Station

10:50pm - Fri 24th Apr 2015 All times are CDT. -5 hours from GMT.

  • Wind
    2mph, 11mph gusts
  • Air Temp 44°f
  • Sea Pressure 1013.9mb
  • St. Joseph, Mi
  • St. Joseph, Mi

More Historic Weather Station data

Upgrade to MSW Pro to gain access to the past 30 days of data for over 8000 Wavebouys and Weather Stations around the globe.

Join Pro

Comparision Forecast

View Surf forecast
   
Fri 04/24 10:50pm 2 11 mph 1013.9mb 44f
10:49pm 2 11 mph 1014.6mb 44f
10:40pm 3 9 mph 1014.9mb 44f
10:30pm 2 9 mph 1014.9mb 44f
10:20pm 5 9 mph 1015.2mb 44f
10:10pm 5 10 mph 1014.9mb 44f
10:00pm 3 8 mph 1014.9mb 44f
9:50pm 3 8 mph 1014.9mb 44f
9:49pm 3 15 mph 1014.6mb 44f
9:40pm 5 11 mph 1014.9mb 44f
9:30pm 5 15 mph 1014.9mb 44f
9:20pm 6 11 mph 1014.9mb 44f
9:10pm 8 11 mph 1014.9mb 44f
9:00pm 5 10 mph 1014.9mb 44f
8:50pm 5 17 mph 1014.9mb 45f
8:49pm 6 17 mph 1014.9mb 45f
8:40pm 7 13 mph 1014.9mb 45f
8:30pm 7 14 mph 1014.9mb 45f
8:20pm 7 15 mph 1014.9mb 45f
8:10pm 8 15 mph 1015.2mb 46f
8:00pm 13 16 mph 1014.9mb 47f
7:50pm 5 11 mph 1014.9mb 48f
7:48pm 7 16 mph 1014.9mb 48f
7:40pm 7 11 mph 1014.9mb 48f
7:30pm 9 14 mph 1015.2mb 48f
7:20pm 8 15 mph 1014.9mb 48f
7:10pm 8 13 mph 1015.2mb 48f
7:00pm 9 16 mph 1014.9mb 48f
6:50pm 8 13 mph 1015.2mb 48f
6:48pm 8 14 mph 1014.9mb 47f
6:40pm 9 14 mph 1014.9mb 47f
6:30pm 6 10 mph 1015.6mb 46f
6:20pm 6 9 mph 1015.2mb 46f
6:10pm 6 8 mph 1015.2mb 46f
6:00pm 6 7 mph 1015.2mb 46f
5:50pm 2 7 mph 1014.9mb 46f
5:47pm 3 14 mph 1014.9mb 46f
5:40pm 6 10 mph 1014.9mb 47f
5:30pm 6 10 mph 1014.9mb 49f
5:20pm 5 11 mph 1015.6mb 50f
5:10pm 7 14 mph 1015.6mb 50f
5:00pm 7 11 mph 1015.9mb 50f
4:50pm 7 11 mph 1015.9mb 51f
4:47pm 7 11 mph 1015.9mb 51f
4:40pm 6 9 mph 1015.9mb 51f
4:30pm 6 11 mph 1015.9mb 51f
4:20pm 6 10 mph 1015.9mb 50f
4:10pm 8 10 mph 1015.6mb 48f
4:00pm 8 10 mph 1015.6mb 49f
3:50pm 8 11 mph 1015.6mb 49f
3:47pm 9 11 mph 1015.6mb 50f
3:40pm 8 10 mph 1016.3mb 50f
3:30pm 9 11 mph 1016.3mb 49f
3:20pm 9 11 mph 1016.3mb 49f
3:10pm 9 11 mph 1016.3mb 49f
3:00pm 8 10 mph 1015.9mb 49f
2:50pm 7 9 mph 1016.6mb 49f
2:46pm 7 10 mph 1016.6mb 48f
2:40pm 7 10 mph 1016.9mb 49f
2:30pm 8 10 mph 1017.3mb 48f
2:20pm 7 9 mph 1017.6mb 48f
2:10pm 7 9 mph 1016.9mb 50f
2:00pm 6 8 mph 1017.3mb 49f
1:50pm 6 8 mph 1017.9mb 49f
1:46pm 6 10 mph 1017.3mb 49f
1:40pm 6 9 mph 1017.9mb 48f
1:30pm 6 9 mph 1017.6mb 47f
1:20pm 8 10 mph 1017.3mb 49f
1:10pm 7 8 mph 1017.6mb 49f
1:00pm 6 8 mph 1018.3mb 49f
12:50pm 6 7 mph 1018.6mb 48f
12:45pm 2 6 mph 1017.9mb 49f
12:40pm 3 5 mph 1018.3mb 49f
12:30pm 5 6 mph 1017.9mb 48f
12:20pm 1 2 mph 1018.6mb 50f
12:10pm 2 3 mph 1019mb 50f
12:00pm 3
mph
1019.3mb 52f
11:50am 2 3 mph 1019mb 48f
11:45am 2 3 mph 1018.6mb 52f
11:40am 2 3 mph 1018.6mb 53f
11:30am 2 3 mph 1019mb 54f
11:20am 1 2 mph 1019.6mb 54f
11:10am 2
mph
1019.6mb 52f
11:00am 2 3 mph 1019.3mb 49f
10:50am 2 3 mph 1019mb 53f
10:45am 2 3 mph 1019.6mb 52f
10:40am 2
mph
1019.3mb 49f
10:30am 1 2 mph 1020mb 52f
10:20am 2 3 mph 1020.3mb 49f
10:10am 2 3 mph 1020.3mb 48f
10:00am 2 3 mph 1020mb 49f
9:50am 2 5 mph 1019.6mb 48f
9:44am 3 9 mph 1019.3mb 45f
9:40am 5 8 mph 1019.3mb 45f
9:30am 7 8 mph 1019.3mb 45f
9:20am 7 9 mph 1019.3mb 45f
9:10am 7 8 mph 1019.3mb 44f
9:00am 6 9 mph 1019mb 44f
8:50am 6 8 mph 1019.3mb 43f
8:44am 7 9 mph 1019.3mb 43f
8:40am 7 8 mph 1019.3mb 43f
8:30am 7 9 mph 1019.3mb 43f
8:20am 8 9 mph 1019.3mb 42f
8:10am 7 8 mph 1019.6mb 42f
8:00am 6 8 mph 1019.6mb 42f
7:50am 5 8 mph 1019.6mb 42f
7:43am 3 6 mph 1019.6mb 41f
7:40am 3 5 mph 1019.6mb 41f
7:30am 3 6 mph 1020mb 40f
7:20am 3 5 mph 1020mb 39f
7:10am 5 6 mph 1020mb 38f
7:00am 5 6 mph 1020mb 38f
6:50am 3 6 mph 1019.6mb 37f
6:43am 3 10 mph 1019.6mb 36f
6:40am 3 6 mph 1019mb 36f
6:30am 5 8 mph 1019.3mb 37f
6:20am 5 10 mph 1019mb 37f
6:10am 7 10 mph 1018.6mb 37f
6:00am 6 9 mph 1018.6mb 37f
5:50am 5 7 mph 1019mb 36f
5:43am 5 9 mph 1019.3mb 36f
5:40am 5 7 mph 1018.3mb 36f
5:30am 5 7 mph 1018.3mb 36f
5:20am 3 7 mph 1018.6mb 35f
5:10am 3 8 mph 1018.6mb 36f
5:00am 5 9 mph 1018.3mb 37f
4:50am 6 9 mph 1018.6mb 37f
4:42am 6 9 mph 1019mb 37f
4:40am 5 9 mph 1019mb 37f
4:30am 6 9 mph 1019mb 37f
4:20am 5 9 mph 1019.3mb 37f
4:10am 5 8 mph 1019.3mb 36f
4:00am 5 7 mph 1019mb 36f
3:50am 6 8 mph 1019mb 37f
3:42am 5 11 mph 1018.3mb 37f
3:40am 6 9 mph 1018.3mb 37f
3:30am 5 7 mph 1018.3mb 37f
3:20am 6 9 mph 1018.3mb 37f
3:10am 6 10 mph 1018.6mb 37f
3:00am 6 9 mph 1018.6mb 37f
2:50am 7 11 mph 1018.3mb 37f
2:41am 7 10 mph 1018.3mb 36f
2:40am 7 9 mph 1017.9mb 36f
2:30am 7 9 mph 1017.9mb 36f
2:20am 7 9 mph 1017.9mb 36f
2:10am 7 9 mph 1017.9mb 37f
2:00am 7 9 mph 1017.9mb 37f
1:50am 7 10 mph 1017.9mb 38f
1:41am 6 10 mph 1018.3mb 38f
1:40am 6 9 mph 1017.9mb 38f
1:30am 6 9 mph 1018.3mb 38f
1:20am 7 9 mph 1018.3mb 38f
1:10am 6 10 mph 1017.9mb 38f
1:00am 6 8 mph 1018.3mb 38f
12:50am 6 8 mph 1018.6mb 38f
12:41am 6 8 mph 1018.6mb 39f
12:40am 6 8 mph 1019mb 39f
12:30am 5 7 mph 1018.6mb 39f
12:20am 5 7 mph 1019mb 39f
12:10am 6 7 mph 1018.6mb 40f
12:00am 5 7 mph 1018.6mb 40f
Thu 04/23 11:50pm 5 6 mph 1018.6mb 40f
11:40pm 3 6 mph 1018.6mb 40f
11:30pm 3 6 mph 1018.6mb 40f
11:20pm 3 6 mph 1018.6mb 40f
11:10pm 3 6 mph 1018.6mb 40f
11:00pm 3 6 mph 1018.6mb 41f
10:50pm 3 5 mph 1018.3mb 41f
10:40pm 2 3 mph 1018.6mb 40f
10:30pm 2 3 mph 1017.9mb 40f
10:20pm 2 3 mph 1017.6mb 40f
10:10pm 2 3 mph 1017.6mb 40f
10:00pm 1 2 mph 1017.6mb 40f
9:50pm 1 2 mph 1017.6mb 40f
9:40pm 1 2 mph 1017.6mb 40f
9:39pm 1 3 mph 1017.6mb 40f
9:30pm 1 3 mph 1017.6mb 40f
9:20pm 1 2 mph 1017.3mb 40f
9:10pm 1 2 mph 1017.3mb 40f
9:00pm 1 2 mph 1017.3mb 40f
8:50pm  -  1 mph 1017.3mb 40f
8:40pm  -  mph 1017.3mb 41f
8:39pm  -  mph 1017.6mb 41f
8:30pm  -  mph 1017.3mb 41f
8:20pm  -  mph 1017.3mb 41f
8:10pm  -  mph 1017.6mb 41f
8:00pm  -  mph 1017.6mb 42f
7:50pm  -  mph 1017.6mb 42f
7:40pm  -  1 mph 1017.9mb 43f
7:39pm  -  6 mph 1017.9mb 44f
7:30pm  -  3 mph 1017.9mb 44f
7:20pm  -  3 mph 1017.9mb 45f
7:10pm 1 3 mph 1017.9mb 45f
7:00pm 3 5 mph 1017.6mb 45f
6:50pm 2 6 mph 1017.6mb 45f
6:40pm 6 7 mph 1017.3mb 44f
6:38pm 5 8 mph 1017.6mb 44f
6:30pm 6 8 mph 1017.3mb 44f
6:20pm 7 8 mph 1017.3mb 44f
6:10pm 6 7 mph 1017.6mb 43f
6:00pm 6 7 mph 1017.9mb 43f
5:50pm 6 7 mph 1018.3mb 43f
5:40pm 6 7 mph 1018.6mb 43f
5:38pm 5 10 mph 1017.9mb 43f
5:30pm 6 7 mph 1018.6mb 43f
5:20pm 6 9 mph 1018.6mb 42f
5:10pm 6 9 mph 1018.6mb 42f
5:00pm 7 10 mph 1017.9mb 42f
4:50pm 8 10 mph 1017.6mb 41f
4:40pm 6 8 mph 1017.6mb 41f
4:37pm 6 9 mph 1018.3mb 41f
4:30pm 6 9 mph 1017.6mb 41f
4:20pm 7 9 mph 1017.9mb 41f
4:10pm 6 7 mph 1018.3mb 40f
4:00pm 5 7 mph 1018.6mb 41f
3:50pm 6 8 mph 1018.6mb 40f
3:40pm 6 8 mph 1018.6mb 41f
3:37pm 6 9 mph 1018.6mb 41f
3:30pm 6 7 mph 1018.3mb 40f
3:20pm 5 7 mph 1017.9mb 40f
3:10pm 5 6 mph 1017.9mb 40f
3:00pm 5 7 mph 1017.9mb 40f
2:50pm 6 8 mph 1017.9mb 40f
2:40pm 7 9 mph 1017.9mb 40f
2:37pm 7 13 mph 1017.9mb 40f
2:30pm 8 10 mph 1017.9mb 40f
2:20pm 8 11 mph 1018.3mb 40f
2:10pm 9 11 mph 1018.6mb 40f
2:00pm 9 11 mph 1018.6mb 40f
1:50pm 10 13 mph 1018.6mb 39f
1:40pm 10 13 mph 1018.6mb 40f
1:36pm 11 15 mph 1018.3mb 39f
1:30pm 11 14 mph 1018.6mb 39f
1:20pm 10 14 mph 1018.6mb 39f
1:10pm 11 15 mph 1018.6mb 39f
1:00pm 13 15 mph 1018.3mb 39f
12:50pm 11 15 mph 1018.3mb 38f
12:40pm 11 16 mph 1017.9mb 38f
12:36pm 11 16 mph 1017.6mb 38f
12:30pm 11 15 mph 1018.3mb 38f
12:20pm 10 14 mph 1017.9mb 38f
12:10pm 11 16 mph 1017.9mb 38f
12:00pm 11 15 mph 1017.6mb 38f
11:50am 13 15 mph 1017.6mb 38f
11:40am 10 15 mph 1017.3mb 38f
11:35am 11 15 mph 1018.3mb 38f
11:30am 9 13 mph 1017.3mb 38f
11:20am 10 14 mph 1017.3mb 38f
11:10am 10 13 mph 1017.3mb 38f
11:00am 9 14 mph 1017.6mb 39f
10:50am 10 13 mph 1017.9mb 40f
10:40am 8 11 mph 1017.9mb 41f
10:35am 6 10 mph 1017.6mb 40f
10:30am 7 8 mph 1017.6mb 39f
10:20am 6 8 mph 1017.6mb 38f
10:10am 5 7 mph 1017.3mb 38f
10:00am 5 9 mph 1017.3mb 38f
9:50am 7 10 mph 1017.3mb 38f
9:40am 7 9 mph 1016.9mb 38f
9:35am 7 11 mph 1016.6mb 38f
9:30am 8 11 mph 1016.3mb 38f
9:20am 8 11 mph 1016.3mb 38f
9:10am 7 10 mph 1016.6mb 38f
9:00am 8 10 mph 1016.3mb 38f
8:50am 7 10 mph 1015.9mb 38f
8:40am 8 11 mph 1015.9mb 38f
8:34am 9 11 mph 1016.6mb 37f
8:30am 7 9 mph 1015.9mb 37f
8:20am 7 9 mph 1015.9mb 38f
8:10am 8 10 mph 1015.6mb 38f
8:00am 8 10 mph 1015.9mb 38f
7:50am 9 10 mph 1015.6mb 38f
7:40am 8 11 mph 1015.6mb 38f
7:34am 8 13 mph 1016.3mb 38f
7:30am 8 10 mph 1015.6mb 38f
7:20am 8 10 mph 1015.6mb 37f
7:10am 9 11 mph 1015.6mb 38f
7:00am 9 11 mph 1015.9mb 38f
6:50am 9 13 mph 1015.9mb 37f
6:40am 7 10 mph 1015.6mb 38f
6:33am 7 13 mph 1015.6mb 37f
6:30am 7 11 mph 1015.6mb 37f
6:20am 8 10 mph 1015.2mb 38f
6:10am 8 13 mph 1014.9mb 38f
6:00am 9 11 mph 1014.2mb 38f
5:50am 9 10 mph 1014.2mb 38f
5:40am 9 11 mph 1014.2mb 38f
5:33am 9 13 mph 1014.6mb 38f
5:30am 9 11 mph 1014.2mb 38f
5:20am 9 13 mph 1013.9mb 38f
5:10am 10 13 mph 1013.9mb 38f
5:00am 10 11 mph 1013.5mb 38f
4:50am 9 11 mph 1013.5mb 38f
4:40am 9 11 mph 1013.5mb 38f
4:33am 9 13 mph 1014.2mb 38f
4:30am 9 13 mph 1013.2mb 38f
4:20am 9 13 mph 1013.2mb 38f
4:10am 10 13 mph 1013.2mb 38f
4:00am 10 13 mph 1013.2mb 38f
3:50am 10 13 mph 1013.2mb 38f
3:40am 10 14 mph 1013.2mb 38f
3:32am 11 16 mph 1013.5mb 38f
3:30am 10 15 mph 1013.5mb 38f
3:20am 11 16 mph 1013.5mb 38f
3:10am 13 16 mph 1013.5mb 38f
3:00am 10 15 mph 1013.5mb 38f
2:50am 11 15 mph 1013.5mb 38f
2:40am 10 16 mph 1013.2mb 38f
2:32am 9 16 mph 1012.9mb 38f
2:30am 10 14 mph 1013.2mb 38f
2:20am 11 15 mph 1013.2mb 38f
2:10am 11 16 mph 1013.2mb 38f
2:00am 14 16 mph 1012.9mb 38f
1:50am 13 16 mph 1012.9mb 38f
1:40am 13 18 mph 1012.9mb 38f
1:31am 17 20 mph 1012.9mb 40f
1:30am 17 20 mph 1012.9mb 40f
1:20am 10 14 mph 1012.9mb 41f
1:10am 10 14 mph 1012.9mb 41f
1:00am 9 13 mph 1012.9mb 41f
12:50am 9 13 mph 1012.5mb 41f
12:40am 10 13 mph 1012.9mb 41f
12:31am 9 13 mph 1012.2mb 41f
12:30am 9 11 mph 1012.9mb 41f
12:20am 8 13 mph 1012.5mb 41f
12:10am 10 13 mph 1012.5mb 41f
12:00am 8 10 mph 1012.5mb 41f
Wed 04/22 11:50pm 8 10 mph 1012.5mb 41f
11:40pm 7 8 mph 1012.5mb 41f
11:31pm 6 10 mph 1011.9mb 41f
11:30pm 6 8 mph 1012.2mb 41f
11:20pm 7 9 mph 1012.5mb 41f
11:10pm 8 9 mph 1012.2mb 41f
11:00pm 8 10 mph 1012.2mb 41f
10:50pm 8 9 mph 1012.2mb 41f
10:40pm 8 10 mph 1012.2mb 41f
10:30pm 8 13 mph 1011.9mb 41f
10:20pm 9 10 mph 1012.2mb 41f
10:10pm 9 11 mph 1012.2mb 41f
10:00pm 10 13 mph 1012.2mb 42f
9:50pm 9 13 mph 1012.5mb 41f
9:40pm 10 13 mph 1012.5mb 41f
9:30pm 9 13 mph 1012.5mb 41f
9:20pm 9 13 mph 1012.5mb 41f
9:10pm 10 13 mph 1012.5mb 41f
9:00pm 8 13 mph 1012.5mb 41f
8:50pm 10 13 mph 1012.2mb 41f
8:40pm 10 13 mph 1012.2mb 41f
8:30pm 9 13 mph 1012.2mb 41f
8:29pm 8 14 mph 1011.5mb 41f
8:20pm 10 13 mph 1012.2mb 41f
8:10pm 10 13 mph 1012.2mb 41f
8:00pm 10 11 mph 1012.2mb 40f
7:50pm 10 13 mph 1012.2mb 41f
7:40pm 10 14 mph 1011.9mb 40f
7:30pm 10 14 mph 1011.9mb 40f
7:29pm 10 16 mph 1011.5mb 40f
7:20pm 10 14 mph 1011.5mb 40f
7:10pm 11 15 mph 1011.5mb 41f
7:00pm 10 14 mph 1011.2mb 41f
6:50pm 11 16 mph 1011.2mb 41f
6:40pm 13 15 mph 1011.2mb 40f
6:30pm 13 16 mph 1011.2mb 40f
6:28pm 11 18 mph 1011.2mb 40f
6:20pm 13 16 mph 1011.5mb 40f
6:10pm 13 16 mph 1011.9mb 40f
6:00pm 10 15 mph 1011.9mb 40f
5:50pm 13 17 mph 1011.9mb 40f
5:40pm 15 18 mph 1011.9mb 40f
5:30pm 13 17 mph 1011.9mb 40f
5:28pm 13 17 mph 1011.5mb 40f
5:20pm 14 16 mph 1011.9mb 40f
5:10pm 14 17 mph 1011.5mb 40f
5:00pm 14 17 mph 1011.5mb 40f
4:50pm 14 16 mph 1011.5mb 40f
4:40pm 14 17 mph 1011.5mb 40f
4:30pm 14 17 mph 1011.2mb 40f
4:28pm 13 17 mph 1010.5mb 40f
4:20pm 14 16 mph 1011.2mb 40f
4:10pm 14 17 mph 1010.8mb 41f
4:00pm 13 17 mph 1010.8mb 40f
3:50pm 13 15 mph 1010.8mb 40f
3:40pm 14 16 mph 1011.2mb 40f
3:30pm 14 18 mph 1011.2mb 40f
3:27pm 15 22 mph 1010.2mb 40f
3:20pm 14 20 mph 1011.2mb 40f
3:10pm 14 20 mph 1011.2mb 40f
3:00pm 15 20 mph 1011.2mb 40f
2:50pm 16 21 mph 1011.2mb 39f
2:40pm 16 21 mph 1011.2mb 39f
2:30pm 17 22 mph 1011.2mb 39f
2:27pm 18 23 mph 1010.8mb 39f
2:20pm 18 23 mph 1011.2mb 39f
2:10pm 17 22 mph 1011.2mb 39f
2:00pm 17 22 mph 1010.8mb 39f
1:50pm 16 22 mph 1010.8mb 39f
1:40pm 16 20 mph 1010.8mb 38f
1:30pm 17 20 mph 1010.5mb 38f
1:26pm 16 22 mph 1010.2mb 38f
1:20pm 16 20 mph 1010.2mb 38f
1:10pm 15 21 mph 1010.2mb 38f
1:00pm 17 22 mph 1009.8mb 38f
12:50pm 16 21 mph 1009.8mb 38f
12:40pm 16 21 mph 1009.8mb 38f
12:30pm 16 21 mph 1009.5mb 38f
12:26pm 17 23 mph 1010.2mb 38f
12:20pm 15 20 mph 1009.5mb 38f
12:10pm 16 21 mph 1009.5mb 38f
12:00pm 16 20 mph 1009.5mb 38f
11:50am 16 22 mph 1009.5mb 37f
11:40am 17 23 mph 1009.5mb 37f
11:30am 17 23 mph 1009.5mb 37f
11:26am 18 26 mph 1009.5mb 37f
11:20am 20 25 mph 1009.8mb 37f
11:10am 20 25 mph 1009.5mb 37f
11:00am 20 25 mph 1009.5mb 37f
10:50am 21 26 mph 1009.5mb 37f
10:40am 18 25 mph 1009.5mb 37f
10:30am 20 25 mph 1009.5mb 37f
10:25am 22 26 mph 1009.1mb 37f
10:20am 22 26 mph 1009.5mb 37f
10:10am 21 26 mph 1009.5mb 37f
10:00am 21 26 mph 1009.5mb 37f
9:50am 21 24 mph 1009.1mb 37f
9:40am 18 23 mph 1008.8mb 37f
9:30am 18 25 mph 1008.8mb 37f
9:25am 18 26 mph 1008.5mb 37f
9:20am 17 24 mph 1008.8mb 37f
9:10am 21 25 mph 1008.8mb 36f
9:00am 18 26 mph 1008.5mb 37f
8:50am 22 26 mph 1008.5mb 37f
8:40am 22 26 mph 1008.1mb 37f
8:30am 20 25 mph 1008.1mb 37f
8:24am 22 25 mph 1007.8mb 37f
8:20am 22 25 mph 1008.1mb 37f
8:10am 18 24 mph 1008.1mb 37f
8:00am 18 23 mph 1007.8mb 37f
7:50am 18 24 mph 1007.8mb 37f
7:40am 20 24 mph 1007.5mb 38f
7:30am 20 24 mph 1007.1mb 38f
7:24am 21 26 mph 1007.5mb 38f
7:20am 20 25 mph 1006.8mb 38f
7:10am 22 26 mph 1006.8mb 38f
7:00am 18 22 mph 1006.4mb 38f
6:50am 18 23 mph 1006.1mb 38f
6:40am 22 25 mph 1006.4mb 38f
6:30am 16 21 mph 1006.1mb 38f
6:24am 17 21 mph 1006.8mb 38f
6:20am 16 22 mph 1006.4mb 38f
6:10am 16 22 mph 1006.4mb 38f
6:00am 17 23 mph 1006.4mb 38f
5:50am 21 25 mph 1006.4mb 38f
5:40am 21 28 mph 1006.4mb 38f
5:30am 18 25 mph 1006.1mb 38f
5:23am 21
mph
1005.8mb 38f
5:20am 21 29 mph 1006.4mb 38f
5:10am 22 26 mph 1006.1mb 38f
5:00am 18 25 mph 1006.1mb 38f
4:50am 21 25 mph 1005.8mb 38f
4:40am 20 26 mph 1005.8mb 38f
4:30am 23 26 mph 1005.8mb 39f
4:23am 17 24 mph 1005.4mb 39f
4:20am 15 24 mph 1005.8mb 39f
4:10am 18 23 mph 1005.8mb 39f
4:00am 17 22 mph 1005.4mb 39f
3:50am 16 23 mph 1005.4mb 39f
3:40am 20 23 mph 1005.4mb 39f
3:30am 18 22 mph 1005.1mb 39f
3:22am 16 23 mph 1005.4mb 39f
3:20am 17 23 mph 1004.7mb 39f
3:10am 16 21 mph 1004.7mb 39f
3:00am 16 20 mph 1004.4mb 40f
2:50am 17 22 mph 1004.4mb 40f
2:40am 17 22 mph 1004.4mb 40f
2:30am 15 21 mph 1004.4mb 39f
2:22am 17 26 mph 1005.4mb 40f
2:20am 16 20 mph 1004.4mb 40f
2:10am 17 21 mph 1004.4mb 40f
2:00am 17 22 mph 1004.4mb 40f
1:50am 17 23 mph 1004.4mb 40f
1:40am 20 25 mph 1004.7mb 40f
1:30am 21 26 mph 1004.7mb 41f
1:22am 23 26 mph 1005.4mb 41f
1:20am 23 26 mph 1005.1mb 41f
1:10am 21 26 mph 1004.7mb 42f
1:00am 18 24 mph 1004.7mb 42f
12:50am 20 24 mph 1005.1mb 42f
12:40am 20 24 mph 1005.1mb 42f
12:30am 20 24 mph 1004.7mb 42f
12:21am 20 24 mph 1005.4mb 42f
12:20am 20 24 mph 1004.7mb 42f
12:10am 18 24 mph 1004.7mb 42f
12:00am 18 22 mph 1004.7mb 42f
Tue 04/21 11:50pm 17 21 mph 1004.7mb 42f
11:40pm 16 20 mph 1004.7mb 42f
11:30pm 15 20 mph 1004.7mb 42f
11:21pm 15 23 mph 1005.1mb 42f
11:20pm 15 21 mph 1004.7mb 42f
11:10pm 16 20 mph 1005.1mb 42f
11:00pm 16 20 mph 1005.1mb 42f
10:50pm 17 21 mph 1005.1mb 42f
10:40pm 16 23 mph 1005.4mb 42f
10:30pm 18 23 mph 1005.4mb 42f
10:20pm 17 23 mph 1005.4mb 42f
10:10pm 17 23 mph 1005.4mb 42f
10:00pm 17 23 mph 1005.4mb 42f
9:50pm 18 23 mph 1005.4mb 42f
9:40pm 17 22 mph 1005.8mb 42f
9:30pm 18 21 mph 1005.8mb 42f
9:20pm 16 21 mph 1005.8mb 42f
9:10pm 17 21 mph 1005.8mb 42f
9:00pm 15 17 mph 1006.1mb 42f
8:50pm 15 17 mph 1006.4mb 42f
8:40pm 13 17 mph 1006.4mb 42f
8:30pm 14 16 mph 1006.1mb 42f
8:20pm 14 17 mph 1006.1mb 42f
8:10pm 14 17 mph 1006.1mb 42f
8:00pm 13 16 mph 1006.1mb 42f
7:50pm 11 16 mph 1006.1mb 42f
7:40pm 14 16 mph 1006.1mb 42f
7:30pm 13 17 mph 1006.1mb 42f
7:20pm 13 18 mph 1006.1mb 42f
7:19pm 15 18 mph 1005.4mb 42f
7:10pm 15 20 mph 1006.1mb 42f
7:00pm 15 21 mph 1005.8mb 42f
6:50pm 15 23 mph 1005.8mb 42f
6:40pm 20 26 mph 1005.4mb 42f
6:30pm 18 29 mph 1005.1mb 42f
6:20pm 23 30 mph 1004.7mb 43f
6:19pm 21
mph
1005.4mb 43f
6:10pm 20 24 mph 1004.7mb 43f
6:00pm 17 23 mph 1005.1mb 44f
5:50pm 15 18 mph 1004.7mb 45f
5:40pm 10 14 mph 1005.1mb 45f
5:30pm 3 9 mph 1004.7mb 44f
5:20pm 7 10 mph 1004.4mb 45f
5:18pm 8 11 mph 1004.1mb 45f
5:10pm 8 10 mph 1004.4mb 45f
5:00pm 8 11 mph 1004.1mb 45f
4:50pm 3
mph
1003.4mb 46f
4:40pm 3 5 mph 1003mb 45f
4:30pm 3 6 mph 1003mb 45f
4:20pm 3 6 mph 1002.7mb 47f
4:18pm 2 13 mph 1003mb 46f
4:10pm 1 5 mph 1002.7mb 45f
4:00pm 5 8 mph 1003mb 46f
3:50pm 6 8 mph 1003mb 45f
3:40pm 6 11 mph 1003.4mb 45f
3:30pm 7 13 mph 1003.4mb 45f
3:20pm 9
mph
1003.7mb 45f
3:17pm 7 16 mph 1003.4mb 45f
3:10pm 7 9 mph 1003.4mb 46f
3:00pm 8 9 mph 1003.7mb 46f
2:50pm 9 13 mph 1003.4mb 46f
2:40pm 10 13 mph 1003.4mb 45f
2:30pm 11 16 mph 1003.7mb 44f
2:20pm 14 16 mph 1003.7mb 44f
2:17pm 13 23 mph 1004.1mb 44f
2:10pm 13 16 mph 1003.7mb 44f
2:00pm 13 17 mph 1003.7mb 44f
1:50pm 14 18 mph 1003.7mb 44f
1:40pm 16 18 mph 1003.7mb 44f
1:30pm 15 23 mph 1003.7mb 44f
1:20pm 16 22 mph 1003.7mb 43f
1:17pm 20 22 mph 1003.7mb 43f
1:10pm 18 22 mph 1003.7mb 43f
1:00pm 18 22 mph 1003.7mb 43f
12:50pm 17 22 mph 1003.7mb 43f
12:40pm 17 20 mph 1003.4mb 43f
12:30pm 17 18 mph 1003.4mb 43f
12:20pm 16 21 mph 1003.4mb 42f
12:16pm 16 26 mph 1004.4mb 42f
12:10pm 17 21 mph 1003.4mb 43f
12:00pm 20 25 mph 1003.4mb 43f
11:50am 20 25 mph 1003.7mb 43f
11:40am 21 25 mph 1003.7mb 42f
11:30am 22 26 mph 1004.1mb 42f
11:20am 21 24 mph 1003.7mb 42f
11:16am 21 24 mph 1003.4mb 42f
11:10am 20 24 mph 1003.7mb 42f
11:00am 21 24 mph 1003.7mb 42f
10:50am 18 22 mph 1004.1mb 42f
10:40am 17 22 mph 1004.1mb 42f
10:30am 16 22 mph 1004.1mb 42f
10:20am 17 22 mph 1004.1mb 42f
10:15am 18
mph
1003.4mb 42f
10:10am 20 25 mph 1004.1mb 42f
10:00am 21 26 mph 1004.1mb 42f
9:50am 22 29 mph 1004.1mb 42f
9:40am 25 30 mph 1003.7mb 42f
9:36am 25 29 mph 1002.7mb 42f
9:30am 25 33 mph 1003.7mb 43f
9:20am 28 32 mph 1003.4mb 43f
9:15am 25
mph
1003.4mb 43f
9:10am 24 33 mph 1003mb 42f
9:00am 26 31 mph 1003.4mb 42f
8:50am 26 31 mph 1003.4mb 42f
8:40am 24 29 mph 1003.4mb 42f
8:34am 23 29 mph 1003mb 42f
8:30am 22 28 mph 1003.4mb 42f
8:20am 24 28 mph 1003.4mb 42f
8:15am 24
mph
1003.4mb 42f
8:10am 24 29 mph 1003.4mb 42f
8:00am 23 30 mph 1003.4mb 42f
7:50am 24 26 mph 1003mb 42f
7:40am 24 31 mph 1003mb 42f
7:30am 24 31 mph 1002.7mb 42f
7:22am 26 29 mph 1002.4mb 42f
7:20am 24 32 mph 1002.7mb 42f
7:14am 25
mph
1002mb 42f
7:10am 23 30 mph 1002mb 42f
7:00am 24 30 mph 1002mb 42f
6:50am 23 29 mph 1002mb 42f
6:40am 23 29 mph 1002mb 42f
6:30am 23 30 mph 1002mb 42f
6:22am 24 29 mph 1002.7mb 42f
6:20am 23 28 mph 1002mb 42f
6:10am 22 26 mph 1002mb 42f
6:00am 23 28 mph 1002mb 42f
5:50am 23 28 mph 1002.4mb 42f
5:40am 23 28 mph 1002mb 42f
5:30am 23 28 mph 1002mb 42f
5:20am 22 26 mph 1002mb 42f
5:13am 22 25 mph 1001.7mb 42f
5:10am 22 25 mph 1002.4mb 42f
5:00am 23 25 mph 1002mb 43f
4:50am 21 24 mph 1002mb 43f